Date,TemperatureHighF,TemperatureAvgF,TemperatureLowF,DewpointHighF,DewpointAvgF,DewpointLowF,HumidityHigh,HumidityAvg,HumidityLow,PressureMaxIn,PressureMinIn,WindSpeedMaxMPH,WindSpeedAvgMPH,GustSpeedMaxMPH,PrecipitationSumIn
2013-1-1,34,18,0,21,9,-5,87,70,40,0.00,40.00,9,4,22,0.00
2013-1-2,25,20,15,20,14,9,85,77,59,0.00,40.00,10,7,26,0.01
2013-1-3,47,15,-5,21,7,-11,86,73,22,0.00,40.00,4,2,17,0.06
2013-1-4,55,20,3,17,7,-3,82,63,20,0.00,40.00,5,3,8,0.01
2013-1-5,37,25,8,17,12,3,83,59,38,0.00,40.00,10,6,29,0.00
2013-1-6,52,24,0,17,7,-5,84,56,15,0.00,40.00,8,3,20,0.00
2013-1-7,45,24,14,21,15,11,87,71,34,0.00,40.00,6,2,12,0.00
2013-1-8,41,32,20,28,20,14,84,62,38,0.00,40.00,10,5,26,0.00
2013-1-9,59,36,14,24,16,9,86,53,19,0.00,40.00,12,4,29,0.00
2013-1-10,54,45,30,21,13,7,63,31,15,0.00,40.00,9,4,24,0.00
2013-1-11,31,14,2,23,6,-11,84,68,53,0.00,40.00,12,7,26,0.00
2013-1-12,10,4,1,-2,-6,-12,73,62,54,0.00,40.00,11,6,29,0.00
2013-1-13,13,3,-6,0,-6,-12,77,68,50,0.00,40.00,8,2,20,0.00
2013-1-14,19,4,-7,0,-8,-13,75,60,37,0.00,40.00,7,2,16,0.00
2013-1-15,36,23,-5,28,14,-11,85,69,48,0.00,40.00,10,6,25,0.00
2013-1-16,44,36,24,25,18,15,74,48,32,0.00,40.00,9,5,27,0.00
2013-1-17,48,28,15,21,15,12,88,65,28,0.00,40.00,6,2,14,0.00
2013-1-18,52,38,21,18,12,7,74,38,17,0.00,40.00,9,4,26,0.00
2013-1-19,42,31,20,21,17,14,83,59,32,0.00,40.00,15,6,30,0.00
2013-1-20,35,21,9,17,10,3,83,65,39,0.00,40.00,12,6,26,0.00
2013-1-21,18,10,4,11,5,-1,85,79,70,0.00,40.00,8,3,11,0.00
2013-1-22,48,22,3,24,6,-2,81,58,18,0.00,40.00,9,3,24,0.02
2013-1-23,25,17,12,13,9,6,84,72,59,0.00,40.00,8,5,12,0.01
2013-1-24,58,29,9,24,15,5,86,62,15,0.00,40.00,11,4,32,0.00
2013-1-25,50,29,14,23,18,11,89,68,29,0.00,40.00,7,2,14,0.00
2013-1-26,54,32,18,26,20,15,89,67,30,0.00,40.00,7,3,10,0.00
2013-1-27,54,33,23,31,24,19,92,73,38,0.00,40.00,9,2,15,0.00
2013-1-28,29,26,22,25,22,17,92,88,81,0.00,40.00,5,2,10,0.00
2013-1-29,31,17,5,17,9,-3,90,72,49,0.00,40.00,10,5,25,0.13
2013-1-30,26,12,-8,18,5,-15,83,72,57,0.00,40.00,9,5,25,0.01
2013-1-31,20,9,2,7,-1,-7,84,65,47,0.00,40.00,9,6,22,0.00
2013-2-1,41,32,14,29,24,11,89,73,55,0.00,40.00,9,5,24,0.01
2013-2-2,41,33,22,27,19,17,88,59,39,0.00,40.00,13,7,38,0.01
2013-2-3,52,35,18,20,15,9,87,51,17,0.00,40.00,10,4,27,0.00
2013-2-4,45,30,16,21,18,13,87,64,33,0.00,40.00,10,4,30,0.00
2013-2-5,46,36,25,25,23,21,86,60,38,0.00,40.00,8,3,17,0.00
2013-2-6,47,31,20,26,21,17,89,71,41,0.00,40.00,8,4,20,0.00
2013-2-7,47,30,15,23,15,10,90,59,22,0.00,40.00,7,3,15,0.00
2013-2-8,49,32,20,18,15,11,83,54,21,0.00,40.00,5,2,15,0.00
2013-2-9,38,27,20,20,17,13,90,66,38,0.00,40.00,9,4,18,0.00
2013-2-10,24,21,15,20,14,6,86,76,65,0.00,40.00,15,10,37,0.00
2013-2-11,32,18,-1,12,5,-6,80,59,37,0.00,40.00,7,3,16,0.00
2013-2-12,42,30,8,18,14,2,80,52,35,0.00,40.00,9,4,20,0.00
2013-2-13,41,33,27,28,20,16,79,60,43,0.00,40.00,15,7,33,0.01
2013-2-14,27,20,2,20,11,-3,86,71,53,0.00,40.00,14,7,30,0.01
2013-2-15,32,17,-1,14,7,-7,84,67,37,0.00,40.00,10,3,22,0.03
2013-2-16,49,37,23,23,22,19,87,56,35,0.00,40.00,10,6,27,0.02
2013-2-17,52,33,20,26,20,15,89,63,23,0.00,40.00,12,6,33,0.01
2013-2-18,27,22,9,19,13,2,78,68,58,0.00,40.00,13,9,30,0.00
2013-2-19,25,14,-7,13,6,-14,82,70,54,0.00,40.00,14,7,22,0.00
2013-2-20,32,23,16,16,12,9,77,66,45,0.00,40.00,11,7,17,0.00
2013-2-21,26,20,17,19,16,14,92,84,72,0.00,40.00,5,3,11,0.03
2013-2-22,33,22,11,23,12,6,88,66,37,0.00,40.00,8,3,19,0.02
2013-2-23,44,26,4,27,11,-1,88,58,27,0.00,40.00,5,3,11,0.00
2013-2-24,30,24,10,27,19,4,90,81,71,0.00,40.00,10,5,21,0.00
2013-2-25,47,24,-2,16,5,-8,82,52,16,0.00,40.00,12,4,17,0.02
2013-2-26,33,25,9,25,18,4,86,76,66,0.00,40.00,10,6,20,0.02
2013-2-27,33,26,16,18,15,9,82,63,49,0.00,40.00,12,6,26,0.00
2013-2-28,37,23,6,23,14,2,85,70,40,0.00,40.00,8,4,19,0.01
2013-3-1,42,29,12,28,15,4,92,62,22,0.00,40.00,7,3,16,0.01
2013-3-2,55,40,26,29,26,24,94,62,31,0.00,40.00,7,4,19,0.00
2013-3-3,56,39,28,30,26,18,86,64,32,0.00,40.00,13,4,30,0.00
2013-3-4,28,20,13,18,8,2,73,58,41,0.00,40.00,15,11,41,0.00
2013-3-5,31,18,2,11,6,-3,80,59,36,0.00,40.00,14,5,30,0.00
2013-3-6,44,26,7,19,12,3,83,62,29,0.00,40.00,12,4,18,0.00
2013-3-7,54,34,21,28,20,17,87,63,31,0.00,40.00,10,4,17,0.00
2013-3-8,40,32,24,27,24,21,89,74,55,0.00,40.00,9,4,18,0.00
2013-3-9,37,30,24,26,20,11,91,68,36,0.00,40.00,16,9,37,0.00
2013-3-10,45,29,15,15,3,-11,77,41,10,0.00,40.00,10,6,28,0.00
2013-3-11,42,32,23,26,17,9,72,54,32,0.00,40.00,13,7,30,0.00
2013-3-12,38,26,18,10,3,-1,55,38,20,0.00,40.00,13,7,31,0.00
2013-3-13,60,40,24,26,19,4,75,45,24,0.00,40.00,9,3,23,0.00
2013-3-14,67,45,29,31,25,23,85,54,19,0.00,40.00,8,3,20,0.00
2013-3-15,63,45,30,29,25,22,81,51,21,0.00,40.00,12,6,28,0.00
2013-3-16,35,30,24,33,27,22,97,90,73,0.00,40.00,8,4,16,0.08
2013-3-17,52,31,22,36,25,12,96,79,32,0.00,40.00,13,6,38,0.10
2013-3-18,34,25,15,13,6,-6,66,46,18,0.00,40.00,10,6,30,0.01
2013-3-19,32,25,11,15,10,3,73,55,39,0.00,40.00,11,5,21,0.00
2013-3-20,46,25,2,15,6,-3,81,51,19,0.00,40.00,14,6,23,0.00
2013-3-21,39,28,18,22,17,12,91,66,46,0.00,40.00,11,4,19,0.00
2013-3-22,36,26,17,24,21,7,90,82,56,0.00,40.00,8,4,15,0.10
2013-3-23,27,17,6,8,5,-3,77,59,34,0.00,40.00,12,5,26,0.20
2013-3-24,20,9,-3,5,0,-9,80,66,47,0.00,40.00,11,6,24,0.02
2013-3-25,32,16,-5,13,4,-11,83,62,29,0.00,40.00,9,4,16,0.04
2013-3-26,45,25,3,17,8,-2,82,55,20,0.00,40.00,8,3,18,0.01
2013-3-27,50,30,12,20,14,7,81,58,27,0.00,40.00,9,4,17,0.00
2013-3-28,57,45,26,26,24,22,86,49,26,0.00,40.00,6,3,16,0.00
2013-3-29,63,43,25,34,24,18,91,57,19,0.00,40.00,8,3,16,0.00
2013-3-30,51,38,29,37,30,25,93,76,38,0.00,40.00,10,4,23,0.09
2013-3-31,49,34,21,32,24,18,95,72,42,0.00,40.00,9,3,14,0.01
2013-4-1,47,32,17,24,21,14,89,67,40,0.00,40.00,7,3,16,0.00
2013-4-2,54,36,18,26,20,15,90,59,29,0.00,40.00,9,4,18,0.01
2013-4-3,65,48,25,34,25,17,77,46,16,0.00,40.00,12,5,20,0.01
2013-4-4,52,39,26,27,23,17,89,57,31,0.00,40.00,10,6,18,0.00
2013-4-5,70,46,28,36,27,17,77,51,19,0.00,40.00,11,5,21,0.00
2013-4-6,58,48,32,37,29,23,81,52,28,0.00,40.00,12,6,26,0.00
2013-4-7,56,41,28,44,34,24,97,77,40,0.00,40.00,6,2,12,0.12
2013-4-8,42,28,13,40,24,7,97,86,72,0.00,40.00,12,5,24,0.02
2013-4-9,12,10,7,7,5,1,84,80,76,0.00,40.00,10,7,21,0.00
2013-4-10,27,18,7,24,14,0,89,86,82,0.00,40.00,9,4,16,0.21
2013-4-11,34,20,0,29,15,-5,90,82,77,0.00,40.00,10,5,22,0.10
2013-4-12,38,29,19,28,23,16,92,79,64,0.00,40.00,9,4,25,0.01
2013-4-13,47,30,9,32,22,5,97,76,46,0.00,40.00,12,5,17,0.01
2013-4-14,36,30,17,33,20,9,97,70,49,0.00,40.00,11,8,29,0.00
2013-4-15,32,22,13,15,10,6,73,59,43,0.00,40.00,9,6,20,0.00
2013-4-16,28,21,13,19,14,8,89,75,50,0.00,40.00,6,2,10,0.05
2013-4-17,28,22,20,20,18,15,90,80,68,0.00,40.00,10,4,17,0.01
2013-4-18,33,24,16,16,10,6,83,60,33,0.00,40.00,12,7,25,0.18
2013-4-19,39,31,17,29,26,12,94,82,63,0.00,40.00,8,5,20,0.07
2013-4-20,51,38,28,35,31,27,97,80,43,0.00,40.00,9,4,16,0.12
2013-4-21,47,35,28,34,31,26,97,86,60,0.00,40.00,9,4,20,0.11
2013-4-22,28,22,10,26,16,3,93,78,54,0.00,40.00,9,5,21,0.28
2013-4-23,37,21,1,19,10,-4,88,66,36,0.00,40.00,7,3,14,0.03
2013-4-24,39,31,17,24,18,13,85,61,39,0.00,40.00,11,6,29,0.02
2013-4-25,62,43,18,24,16,10,90,44,13,0.00,40.00,7,4,18,0.00
2013-4-26,66,44,25,31,24,21,88,55,18,0.00,40.00,8,4,14,0.00
2013-4-27,72,50,27,35,27,21,90,53,15,0.00,40.00,8,4,18,0.00
2013-4-28,61,48,32,42,33,29,96,61,35,0.00,40.00,11,6,25,0.11
2013-4-29,69,51,31,37,32,24,98,58,19,0.00,40.00,10,4,41,0.11
2013-4-30,47,39,31,33,23,18,80,55,33,0.00,40.00,10,6,25,0.01
2013-5-1,42,32,24,19,14,9,70,49,26,0.00,40.00,8,5,19,0.00
2013-5-2,49,33,15,22,14,10,82,52,20,0.00,40.00,8,4,22,0.00
2013-5-3,58,39,19,22,18,14,79,47,23,0.00,40.00,7,4,19,0.00
2013-5-4,54,39,22,24,17,14,77,45,21,0.00,40.00,6,3,15,0.00
2013-5-5,57,40,21,24,18,14,74,46,23,0.00,40.00,5,3,17,0.00
2013-5-6,65,46,23,28,24,19,85,49,22,0.00,40.00,8,4,18,0.00
2013-5-7,69,48,27,45,33,24,87,61,27,0.00,40.00,6,3,22,0.02
2013-5-8,67,52,31,42,35,30,95,58,25,0.00,40.00,7,4,18,0.02
2013-5-9,61,47,31,42,37,29,93,70,42,0.00,40.00,9,4,18,0.00
2013-5-10,68,51,30,47,36,28,96,64,22,0.00,40.00,11,5,42,0.04
2013-5-11,59,44,26,30,28,24,92,58,30,0.00,40.00,8,4,16,0.03
2013-5-12,72,53,29,41,33,26,91,55,26,0.00,40.00,10,4,19,0.00
2013-5-13,85,66,47,50,40,37,74,46,19,0.00,40.00,11,4,20,0.00
2013-5-14,75,66,46,46,40,33,77,39,26,0.00,40.00,11,6,23,0.00
2013-5-15,72,60,33,41,38,30,90,47,29,0.00,40.00,12,7,24,0.00
2013-5-16,65,54,51,57,26,-100,96,70,43,0.00,40.00,10,4,26,0.56
2013-5-17,72,58,41,54,43,-100,98,73,51,0.00,40.00,10,4,20,0.02
2013-5-18,67,55,44,57,50,43,97,86,63,0.00,40.00,7,3,19,0.29
2013-5-19,55,50,46,50,48,42,97,91,82,0.00,40.00,10,5,29,0.34
2013-5-20,50,45,41,44,41,39,92,87,77,0.00,40.00,14,11,32,0.60
2013-5-21,45,42,40,40,38,36,92,85,75,0.00,40.00,12,9,31,0.76
2013-5-22,49,44,40,42,40,37,95,85,76,0.00,40.00,8,5,18,0.01
2013-5-23,60,53,44,44,39,31,87,62,47,0.00,40.00,19,14,36,0.00
2013-5-24,77,61,47,52,48,43,92,64,32,0.00,40.00,17,8,28,0.00
2013-5-25,76,62,41,55,50,40,97,69,41,0.00,40.00,15,7,30,0.00
2013-5-26,72,58,49,57,53,48,98,85,52,0.00,40.00,9,4,17,0.02
2013-5-27,68,56,43,59,53,40,99,92,69,0.00,40.00,12,5,21,0.18
2013-5-28,68,52,34,50,42,34,98,73,34,0.00,40.00,6,3,20,0.79
2013-5-29,66,54,44,54,49,44,99,86,58,0.00,40.00,13,4,25,0.83
2013-5-30,61,52,45,50,44,38,98,77,52,0.00,40.00,11,6,26,0.82
2013-5-31,51,45,41,41,39,37,91,79,68,0.00,40.00,14,9,33,0.36
2013-6-1,58,48,36,40,37,33,94,69,42,0.00,40.00,14,8,27,0.16
2013-6-2,69,52,29,48,40,28,97,70,46,0.00,40.00,13,6,23,0.01
2013-6-3,70,56,41,48,42,32,98,66,25,0.00,40.00,11,5,28,0.00
2013-6-4,58,51,44,38,34,29,72,53,39,0.00,40.00,11,7,24,0.00
2013-6-5,55,47,42,42,37,34,88,69,55,0.00,40.00,8,5,20,0.00
2013-6-6,67,53,30,45,40,29,96,67,41,0.00,40.00,7,3,16,0.00
2013-6-7,74,64,37,53,47,36,97,60,29,0.00,40.00,9,4,17,0.09
2013-6-8,67,58,45,50,44,38,98,64,36,0.00,40.00,15,7,35,0.15
2013-6-9,73,63,38,50,46,37,97,57,34,0.00,40.00,11,6,17,0.02
2013-6-10,81,70,51,56,52,44,89,54,34,0.00,40.00,9,5,18,0.00
2013-6-11,70,62,53,60,55,52,97,81,63,0.00,40.00,11,5,21,0.36
2013-6-12,62,55,47,53,50,46,98,84,64,0.00,40.00,9,5,18,0.36
2013-6-13,74,61,45,56,50,44,97,69,49,0.00,40.00,15,7,25,0.00
2013-6-14,75,66,56,56,49,44,85,58,35,0.00,40.00,9,5,21,0.00
2013-6-15,70,61,47,47,42,30,89,53,27,0.00,40.00,9,4,18,0.00
2013-6-16,74,64,43,56,49,41,95,62,44,0.00,40.00,8,4,19,0.00
2013-6-17,70,58,48,54,49,46,96,74,46,0.00,40.00,11,3,18,0.13
2013-6-18,75,63,41,58,51,40,97,68,46,0.00,40.00,10,5,19,0.01
2013-6-19,79,72,48,61,55,47,96,58,37,0.00,40.00,18,10,36,0.00
2013-6-20,78,69,62,59,44,35,75,45,22,0.00,40.00,9,6,21,0.00
2013-6-22,72,60,48,57,52,46,98,77,51,0.00,40.00,10,4,24,0.35
2013-6-23,71,61,41,52,46,39,98,64,32,0.00,40.00,9,4,19,0.01
2013-6-24,80,74,53,61,55,44,97,53,36,0.00,40.00,8,4,15,0.00
2013-6-25,77,72,53,52,47,39,87,44,32,0.00,40.00,11,6,26,0.00
2013-6-26,84,77,48,56,52,45,95,45,28,0.00,40.00,8,4,15,0.00
2013-6-27,83,70,50,56,52,49,95,58,33,0.00,40.00,8,4,19,0.00
2013-6-28,79,73,54,52,49,45,89,45,33,0.00,40.00,11,7,21,0.00
2013-6-29,74,63,48,56,49,43,96,63,36,0.00,40.00,9,4,19,0.00
2013-6-30,76,66,44,51,48,42,92,54,40,0.00,40.00,7,3,20,0.00
2013-7-1,75,64,47,53,49,45,93,61,45,0.00,40.00,10,5,19,0.00
2013-7-2,80,72,45,53,49,43,93,47,33,0.00,40.00,6,4,14,0.00
2013-7-3,86,80,53,51,47,44,84,34,25,0.00,40.00,8,4,17,0.00
2013-7-4,81,69,50,64,57,45,94,68,39,0.00,40.00,9,3,24,0.09
2013-7-5,78,67,58,62,56,49,97,71,43,0.00,40.00,10,4,19,0.16
2013-7-6,83,66,51,63,56,50,98,74,39,0.00,40.00,11,4,19,0.16
2013-7-7,78,67,57,62,57,53,92,72,52,0.00,40.00,10,4,18,0.03
2013-7-8,82,66,58,66,57,50,97,77,38,0.00,40.00,11,4,29,0.41
2013-7-9,79,66,49,57,53,48,98,66,42,0.00,40.00,8,5,17,0.11
2013-7-10,88,71,48,63,53,-100,96,59,32,0.00,40.00,8,4,23,0.30
2013-7-11,95,85,68,63,54,41,62,37,16,0.00,40.00,15,8,47,0.00
2013-7-12,82,74,59,63,55,50,97,54,35,0.00,40.00,11,5,25,0.09
2013-7-13,84,70,54,65,59,53,98,73,47,0.00,40.00,9,4,19,0.10
2013-7-14,70,63,57,61,58,56,98,87,65,0.00,40.00,6,3,18,0.08
2013-7-15,82,69,55,64,59,54,98,74,46,0.00,40.00,12,6,24,0.01
2013-7-16,87,80,66,56,52,49,62,39,29,0.00,40.00,8,5,17,0.00
2013-7-17,88,80,55,60,54,51,89,43,29,0.00,40.00,12,6,26,0.00
2013-7-18,87,81,65,60,55,48,61,41,28,0.00,40.00,10,6,22,0.00
2013-7-19,85,68,55,63,56,49,97,68,33,0.00,40.00,8,3,14,0.35
2013-7-20,79,68,58,64,58,-100,97,73,49,0.00,40.00,9,3,27,0.10
2013-7-21,87,73,52,59,53,46,98,57,24,0.00,40.00,11,4,21,0.08
2013-7-22,81,66,52,58,52,46,96,66,29,0.00,40.00,12,5,21,0.15
2013-7-23,80,66,50,60,56,49,98,73,47,0.00,40.00,6,3,16,0.03
2013-7-24,83,72,52,58,53,46,97,52,32,0.00,40.00,7,4,15,0.00
2013-7-25,76,66,53,57,52,48,96,64,42,0.00,40.00,10,6,27,0.13
2013-7-26,69,58,48,51,47,43,96,70,49,0.00,40.00,8,4,18,0.11
2013-7-27,69,56,39,51,46,38,96,71,50,0.00,40.00,12,6,20,0.08
2013-7-28,72,61,44,61,54,43,96,79,56,0.00,40.00,9,4,17,0.04
2013-7-29,76,64,49,58,52,48,97,70,42,0.00,40.00,11,5,22,0.02
2013-7-30,82,65,51,60,55,49,93,73,32,0.00,40.00,9,4,24,0.00
2013-7-31,78,69,48,57,50,47,95,54,35,0.00,40.00,7,4,18,0.01
2013-8-1,79,70,51,63,56,47,88,64,40,0.00,40.00,9,5,16,0.38
2013-8-2,73,62,53,59,54,50,94,77,46,0.00,40.00,11,7,22,0.01
2013-8-3,75,66,55,60,57,52,97,75,50,0.00,40.00,13,7,25,0.09
2013-8-4,81,70,61,62,60,58,98,74,45,0.00,40.00,7,4,16,0.01
2013-8-5,79,65,53,65,58,49,97,80,47,0.00,40.00,8,3,22,0.25
2013-8-6,76,64,49,58,50,47,97,66,36,0.00,40.00,12,4,21,0.10
2013-8-7,76,67,48,59,54,47,96,67,43,0.00,40.00,10,5,16,0.04
2013-8-8,76,64,46,56,53,45,97,71,48,0.00,40.00,8,4,19,0.02
2013-8-9,73,60,50,59,55,49,97,85,56,0.00,40.00,6,3,14,0.56
2013-8-10,75,65,55,59,57,54,98,77,57,0.00,40.00,11,4,17,0.02
2013-8-11,73,62,53,63,58,52,97,88,60,0.00,40.00,9,4,17,0.61
2013-8-21,81,71,51,61,53,49,100,58,37,0.00,40.00,11,6,21,0.01
2013-8-22,81,68,49,61,56,49,99,69,44,0.00,40.00,12,7,21,0.01
2013-8-23,87,73,55,62,58,54,97,64,36,0.00,40.00,14,5,24,0.00
2013-8-24,88,80,62,57,51,47,72,40,25,0.00,40.00,10,4,20,0.00
2013-8-25,86,73,52,61,56,51,97,60,33,0.00,40.00,7,3,16,0.00
2013-8-26,91,76,59,62,56,51,93,55,26,0.00,40.00,5,2,10,0.00
2013-8-27,92,78,53,59,54,49,94,50,23,0.00,40.00,6,3,15,0.00
2013-8-28,87,80,72,67,63,52,69,56,43,0.00,40.00,12,8,19,0.00
2013-8-29,89,79,59,55,50,41,81,38,28,0.00,40.00,10,6,20,0.00
2013-8-30,88,76,54,59,56,51,89,53,32,0.00,40.00,8,4,16,0.00
2013-8-31,79,74,62,56,47,41,68,39,29,0.00,40.00,13,8,25,0.00
2013-9-1,80,72,49,47,45,43,79,39,30,0.00,40.00,7,5,16,0.00
2013-9-2,90,81,56,56,49,46,81,34,22,0.00,40.00,12,6,22,0.00
2013-9-3,89,74,62,58,56,52,80,55,33,0.00,40.00,5,3,14,0.00
2013-9-4,88,70,54,62,58,53,96,69,37,0.00,40.00,8,3,16,0.00
2013-9-5,87,70,57,72,61,57,100,77,39,0.00,40.00,9,3,16,0.50
2013-9-6,89,72,56,64,60,56,100,71,36,0.00,40.00,8,3,15,0.48
2013-9-7,91,77,54,63,55,51,98,53,26,0.00,40.00,13,6,24,0.00
2013-9-17,86,67,45,55,49,43,100,62,23,0.00,40.00,10,3,22,0.00
2013-9-18,57,53,50,48,45,41,92,75,64,0.00,40.00,6,3,21,0.00
2013-9-19,60,50,37,43,36,34,91,62,39,0.00,40.00,12,6,25,0.00
2013-9-20,67,56,34,40,37,32,97,53,34,0.00,40.00,7,3,14,0.00
2013-9-21,82,74,32,45,36,27,97,31,14,0.00,40.00,6,4,15,0.00
2013-9-22,84,75,58,50,44,41,73,37,22,0.00,40.00,10,5,20,0.03
2013-9-23,60,52,38,53,47,36,99,85,64,0.00,40.00,10,4,27,0.24
2013-10-3,45,41,33,39,36,32,96,84,60,0.00,40.00,6,3,17,0.57
2013-10-4,32,29,26,32,28,25,98,96,93,0.00,40.00,13,8,28,0.03
2013-10-5,40,31,25,29,26,24,95,83,54,0.00,40.00,12,8,29,0.48
2013-10-6,61,55,42,37,35,33,75,48,35,0.00,40.00,9,6,19,0.01
2013-10-7,73,60,26,38,29,25,98,35,17,0.00,40.00,7,4,20,0.01
2013-10-8,62,50,31,37,30,27,88,52,28,0.00,40.00,8,4,20,0.01
2013-10-9,55,40,29,33,29,27,93,71,36,0.00,40.00,5,2,13,0.00
2013-10-17,41,32,25,31,24,19,91,74,40,0.00,40.00,9,5,20,0.01
2013-10-18,41,31,22,27,23,21,95,73,47,0.00,40.00,8,4,23,0.04
2013-10-19,58,46,34,28,27,24,71,47,31,0.00,40.00,8,4,22,0.01
2013-10-20,46,38,32,35,32,29,94,79,51,0.00,40.00,9,5,27,0.08
2013-10-21,48,40,27,38,32,26,94,76,60,0.00,40.00,11,5,27,0.01
2013-10-22,49,41,34,38,34,32,97,78,52,0.00,40.00,8,4,21,0.06
2013-10-23,46,40,30,37,34,29,98,78,62,0.00,40.00,9,5,18,0.00
2013-10-24,46,35,27,36,32,26,99,89,65,0.00,40.00,8,2,11,0.00
2013-10-25,67,50,27,41,33,26,97,58,24,0.00,40.00,8,4,20,0.01
2013-10-26,62,39,26,34,29,24,94,70,28,0.00,40.00,9,2,14,0.01
2013-10-27,63,41,26,39,30,25,96,71,31,0.00,40.00,9,4,18,0.00
2013-10-28,31,24,22,29,21,-100,97,94,88,0.00,40.00,8,4,17,0.00
2013-10-29,29,26,22,28,25,21,98,95,93,0.00,40.00,6,3,10,0.00
2013-10-30,46,31,23,37,29,22,98,93,65,0.00,40.00,5,1,9,0.06
2013-10-31,46,39,27,31,26,22,95,61,45,0.00,40.00,11,6,32,0.06
2013-11-1,44,38,24,33,26,18,91,64,39,0.00,40.00,17,8,35,0.10
2013-11-2,57,40,21,31,23,19,94,58,25,0.00,40.00,13,4,19,0.01
2013-11-3,53,40,31,31,26,19,80,60,26,0.00,40.00,9,4,18,0.00
2013-11-4,41,31,24,26,21,13,92,68,31,0.00,40.00,8,3,16,0.00
2013-11-5,30,23,9,24,20,5,93,88,74,0.00,40.00,7,3,11,0.20
2013-11-6,42,26,8,30,19,4,95,78,51,0.00,40.00,8,3,22,0.07
2013-11-7,47,30,15,31,23,13,96,79,46,0.00,40.00,9,2,12,0.06
2013-11-8,50,43,31,30,23,19,90,48,33,0.00,40.00,14,7,39,0.06
2013-11-9,43,32,22,25,22,21,94,69,42,0.00,40.00,7,2,20,0.00
2013-11-10,61,38,22,32,26,21,94,69,27,0.00,40.00,11,2,20,0.00
2013-11-11,25,19,9,24,16,5,96,87,78,0.00,40.00,7,3,11,0.03
2013-11-12,55,23,7,27,13,3,85,70,22,0.00,40.00,4,2,7,0.02
2013-11-13,61,40,26,35,28,22,86,67,29,0.00,40.00,5,2,12,0.02
2013-11-14,50,37,25,35,26,21,97,70,33,0.00,40.00,6,2,18,0.02
2013-11-15,52,30,22,32,24,20,95,80,29,0.00,40.00,6,2,14,0.00
2013-11-16,43,31,22,29,23,18,93,75,36,0.00,40.00,5,2,14,0.01
2013-11-17,39,29,17,27,19,11,91,68,32,0.00,40.00,10,4,31,0.02
2013-11-18,51,29,13,21,16,10,89,66,26,0.00,40.00,9,2,13,0.02
2013-11-19,59,48,28,24,20,17,78,37,23,0.00,40.00,10,5,24,0.00
2013-11-20,43,24,9,28,18,1,90,78,53,0.00,40.00,12,6,29,0.00
2013-11-21,21,9,-4,3,-2,-10,82,63,38,0.00,40.00,7,3,19,0.00
2013-11-22,38,24,-4,5,-2,-10,75,41,13,0.00,40.00,10,3,20,0.01
2013-11-23,39,20,6,14,8,2,84,63,30,0.00,40.00,10,2,16,0.01
2013-11-24,61,38,29,26,13,-2,58,37,14,0.00,40.00,9,4,21,0.00
2013-11-25,37,32,27,22,16,10,68,52,38,0.00,40.00,9,4,23,0.00
2013-11-26,36,26,16,16,13,5,88,59,37,0.00,40.00,8,4,18,0.00
2013-11-27,56,31,17,24,16,10,92,64,17,0.00,40.00,11,4,25,0.00
2013-11-28,39,22,14,21,16,10,85,79,47,0.00,40.00,6,2,10,0.00
2013-11-29,58,34,22,27,19,17,88,62,20,0.00,40.00,6,3,20,0.00
2013-11-30,47,31,20,25,22,16,86,71,41,0.00,40.00,5,2,13,0.00
2013-12-1,50,35,26,31,24,22,89,68,36,0.00,40.00,5,2,15,0.00
2013-12-2,49,40,30,33,29,24,96,67,48,0.00,40.00,6,3,16,0.02
2013-12-3,28,15,6,26,10,-2,94,82,71,0.00,40.00,7,5,20,0.02
2013-12-12,48,26,8,18,13,3,83,63,27,0.00,40.00,5,2,16,0.13
2013-12-13,39,26,14,25,18,11,88,75,45,0.00,40.00,8,4,18,0.00
2013-12-14,41,34,24,23,20,17,77,57,42,0.00,40.00,9,4,25,0.00
2013-12-15,50,43,38,23,20,17,54,40,28,0.00,40.00,10,6,24,0.00
2013-12-16,46,38,27,23,20,17,78,48,33,0.00,40.00,10,6,32,0.00
2013-12-17,54,35,20,21,17,16,83,53,24,0.00,40.00,7,3,21,0.00
2013-12-18,57,40,24,22,18,15,83,47,20,0.00,40.00,9,3,19,0.00
2013-12-19,25,12,-4,23,8,-10,96,85,76,0.00,40.00,7,3,12,0.00
2013-12-20,31,6,-8,21,0,-14,86,75,58,0.00,40.00,4,0,8,0.19
2013-12-21,25,12,-1,17,7,-6,88,81,65,0.00,40.00,7,2,14,0.08
2013-12-22,20,8,-3,11,2,-9,84,76,62,0.00,40.00,7,2,16,0.03
2013-12-23,25,13,-11,22,5,-20,93,72,46,0.00,40.00,6,1,13,0.01
2013-12-24,35,28,16,32,22,13,94,78,58,0.00,40.00,8,5,25,0.04
2013-12-28,49,24,3,23,9,-5,89,55,23,0.00,40.00,17,8,45,0.00
2013-12-29,32,16,0,22,6,-5,87,65,41,0.00,40.00,6,1,14,0.00
2013-12-30,35,30,23,25,20,16,86,68,53,0.00,40.00,12,6,27,0.02
2013-12-31,43,32,21,33,25,15,93,75,56,0.00,40.00,7,2,17,0.01
2014-1-1,29,23,14,24,17,11,90,77,55,0.00,40.00,8,4,25,0.01
2014-1-2,44,24,9,19,14,6,89,69,33,0.00,40.00,5,1,12,0.01